Location: Newark
(47.5333°N, 8.7000°E)
Time: 18:29:21
(UTC+00:00)

BEESAT 3 - Pass Details

Date: 30 November 2020
Orbit: 491 x 509 km, 64.9° (Epoch: 14 January)

Event Time Altitude Azimuth Distance (km) Brightness Sun altitude
Exits shadow 04:25:33 16° 13° (NNE) 1,412 ? -23.8°
Drops below altitude 10° 04:26:30 10° 22° (NNE) 1,738 ? -23.7°
Sets 04:28:52 0° 33° (NNE) 2,626 ? -23.3°
